Retour au catalogue

TITAN 3C TRANSTAGE DEB

LostHEO
NORAD 28833·DEBRIS·🇺🇸 United States

Lancé Dec 21, 1965 depuis Cape Canaveral Space Force Station

Loading…

Prochains Passages (prochaines 24 heures)

TLE

PériméSource: Space-Track

Époque: Jan 28, 2026, 18:28 UTC

1 28833U 65108CK  26028.76982112  .00000050  00000-0  00000-0 0  9993
2 28833  27.8604 239.5933 6558514 183.5075 167.3149  2.64806015 88403

Suivez TITAN 3C TRANSTAGE DEB en temps réel avec AllMySat

Download on the App Store